Location: B?jaj?g
(11.7167°N, 92.6667°E)
Time: 13:42:16
(UTC+00:00)

Cosmos 2123 Rocket - Pass Details

Date: 18 September 2020
Orbit: 962 x 991 km, 82.9° (Epoch: 25 October)

Event Time Altitude Azimuth Distance (km) Brightness Sun altitude
Rises 22:58:43 0° 190° (S) 3,642 6.9 -10.6°
Reaches altitude 10° 23:01:14 10° 193° (SSW) 2,698 6.2 -10.0°
Maximum altitude 23:07:20 64° 274° (W) 1,069 4.0 -8.5°
Drops below altitude 10° 23:13:29 10° 355° (N) 2,717 6.3 -7.0°
Sets 23:16:02 0° 358° (N) 3,669 7.0 -6.4°
